{"data":{"norad_id":57124,"intl_designator":"2023-090Z","name":"STARLINK-6146","alt_names":[],"object_type":"PAYLOAD","status":"ACTIVE","operator":null,"country":"US","launch_date":"2023-06-23","launch_site_code":"AFETR","launch_vehicle":null,"mission":null,"orbit_class":"UNKNOWN","rcs_meters":null,"size_class":null,"mass_kg":null,"dimensions":null,"purposes":["comms"],"wikipedia_slug":null,"has_3d_model":false,"image_url":null,"decayed_at":null,"tle_current":{"epoch":"2026-05-25T04:36:12.813408Z","epoch_age_seconds":54479,"freshness":"FRESH","line1":"1 57124U 23090Z   26145.19181497  .00000603  00000+0  32183-4 0  9990","line2":"2 57124  43.0028 209.3989 0001479 274.5689  85.4994 15.26739422162032","mean_motion":15.26739422,"eccentricity":0.0001479,"inclination_deg":43.0028,"raan_deg":209.3989,"arg_perigee_deg":274.5689,"mean_anomaly_deg":85.4994,"bstar":3.2183e-5,"rev_number":16203,"period_min":94.318649223954,"perigee_km":484.55210185854,"apogee_km":486.58238557383,"semimajor_km":6863.7042437162,"source":"CELESTRAK","updated_at":"2026-05-25T13:38:18.243977Z"}}}